Wind_Speed
20 22 23 25 26 28 30 32 35 36 34 33 33 33 32 31 31 30 29 28 29 31 30 29 29 29 28 27 25 24 24 24 22 21 21 20 19 18 18 17 17 17 16 16 15 15 14 14 14 14 14 14 14 14 14 14 14 15 15 15 15 15 15 16 16 16 16 16 16 16 17 17 17 17
21 22 23 24 27 29 31 32 33 35 34 33 34 35 34 34 33 32 31 30 31 32 31 30 31 31 30 29 27 26 26 25 23 22 22 22 20 18 18 18 19 18 18 17 16 15 15 14 14 14 14 14 14 15 15 15 15 16 16 16 17 17 17 17 17 17 17 17 17 17 17 17 18 18
24 23 23 24 26 29 32 33 33 32 32 34 36 38 37 37 36 35 34 32 32 33 33 32 32 32 31 31 29 29 29 27 25 24 24 23 22 20 19 20 20 20 19 18 17 16 16 15 15 14 14 15 15 15 16 17 17 17 18 18 18 19 19 19 19 18 18 19 18 18 18 18 18 19
26 25 24 24 26 29 31 33 33 33 33 35 37 38 39 39 38 37 36 33 32 35 35 34 33 33 32 31 31 31 31 30 27 26 26 25 23 22 21 21 20 20 20 19 18 18 17 17 16 16 15 15 15 16 17 18 18 19 19 20 20 20 21 20 20 20 20 20 20 19 19 19 20 20
26 27 27 26 26 27 29 31 33 34 34 36 38 39 39 39 39 39 38 36 34 36 38 36 35 34 32 31 31 32 32 32 30 28 27 26 25 24 23 22 21 21 21 20 20 19 19 19 18 17 17 16 17 17 18 19 20 20 21 21 21 21 21 21 21 21 21 21 20 20 20 20 21 21
24 25 27 28 27 27 27 29 32 33 34 36 38 40 40 40 40 40 39 38 37 37 39 38 36 35 33 32 32 33 33 33 31 30 29 28 27 26 25 24 23 23 22 22 21 21 21 20 20 19 19 18 18 18 19 19 20 21 21 22 22 22 22 21 21 21 21 21 21 21 21 21 21 21
26 25 25 28 29 28 27 27 30 31 33 34 36 39 41 41 41 40 40 40 39 38 39 40 39 37 36 33 33 34 34 34 33 31 31 30 29 28 27 26 26 25 24 24 24 23 23 22 22 21 21 20 20 20 20 20 21 21 22 22 22 22 22 22 21 21 21 22 22 22 22 21 20 20
28 26 25 26 28 29 28 27 28 30 31 33 34 36 39 41 41 41 41 41 41 40 40 41 41 41 39 36 34 34 34 34 34 33 33 32 31 31 30 29 28 27 26 26 26 25 25 24 24 23 22 22 22 22 22 22 22 23 23 23 23 23 23 23 22 21 22 22 22 22 23 21 20 20
29 28 27 26 27 28 29 28 27 28 29 31 32 33 36 39 40 42 42 41 41 41 40 41 43 44 42 39 37 36 35 35 34 34 33 33 33 33 32 31 30 30 29 28 28 27 27 26 25 24 24 24 24 24 24 24 24 24 24 24 24 24 24 24 23 22 22 22 22 23 23 22 20 20
30 29 29 28 28 28 29 29 29 28 28 29 30 31 33 35 38 40 42 42 41 41 41 42 44 45 45 43 41 38 37 36 35 34 33 34 34 34 34 33 33 33 32 31 30 29 29 28 27 27 27 27 27 26 26 26 26 26 26 25 25 26 25 25 24 23 23 23 23 23 23 22 21 21
32 31 30 30 29 29 29 30 31 31 31 30 30 31 32 34 35 37 40 42 42 42 42 42 43 45 47 46 44 42 40 38 36 34 34 34 35 35 35 35 35 35 34 32 31 31 31 31 30 29 29 29 29 28 28 28 27 27 27 26 26 26 26 26 25 25 24 24 24 24 23 23 21 21
33 33 32 32 31 31 31 31 33 34 34 33 32 32 32 33 35 35 36 39 42 43 43 42 42 44 47 48 47 46 44 41 38 37 36 36 36 36 36 36 36 36 34 33 33 33 33 33 32 31 31 31 30 30 29 29 28 28 27 27 27 26 26 26 26 25 25 24 24 24 24 23 22 21
35 35 34 34 33 33 33 32 33 34 36 37 36 35 35 34 34 35 35 36 39 42 44 44 43 43 45 48 50 49 46 44 42 41 40 38 37 38 38 37 37 36 35 35 34 34 34 34 33 32 32 31 31 30 30 30 29 29 28 28 27 27 27 27 27 27 26 24 24 24 24 24 23 22
37 36 36 36 35 35 35 35 34 34 35 37 37 37 37 36 35 35 35 36 36 38 41 43 44 44 43 46 50 51 48 46 46 45 43 40 39 40 40 38 37 37 36 36 35 35 36 35 33 32 32 32 31 31 30 30 30 30 29 29 28 28 28 28 28 27 26 25 24 24 25 24 23 23
39 39 38 37 37 37 37 36 36 36 35 36 37 37 38 38 38 36 35 36 36 36 38 40 43 45 44 43 47 50 49 48 48 47 46 44 42 41 41 40 39 38 38 37 36 36 36 35 33 32 33 33 32 32 32 31 31 30 30 30 29 28 28 28 28 27 27 26 25 25 25 24 24 24
40 40 40 40 39 38 38 38 38 38 37 36 37 37 37 38 38 38 36 36 36 36 37 37 39 43 44 42 44 47 50 50 50 50 49 47 45 44 43 42 41 40 40 39 37 36 36 35 33 32 33 34 34 33 33 32 31 31 31 30 30 29 28 28 28 28 28 27 26 25 25 24 24 24
41 42 42 42 41 41 40 39 39 39 39 38 38 37 37 37 37 38 38 37 37 37 37 36 37 38 41 43 44 46 49 50 52 52 51 49 48 47 46 45 44 43 42 40 38 35 34 34 33 32 34 36 35 34 33 32 32 31 31 31 31 30 29 29 29 29 28 27 26 25 25 25 24 24
42 42 42 42 42 42 42 41 41 41 40 40 39 38 38 37 36 37 38 38 38 38 37 37 36 36 39 41 43 46 49 50 51 52 52 51 50 50 49 48 47 45 43 42 40 35 33 34 33 33 36 37 36 35 34 33 33 32 32 32 32 31 30 30 30 29 28 27 27 26 26 25 24 24
43 43 43 43 43 43 43 43 43 43 42 42 41 40 39 38 37 36 37 38 39 39 39 37 36 36 38 40 42 46 50 50 50 50 52 52 52 52 50 49 47 45 43 43 41 36 34 35 35 35 37 37 36 35 35 35 34 33 33 33 32 32 31 31 31 30 29 28 28 27 27 26 25 25
44 43 44 44 44 44 44 44 44 44 44 43 42 41 40 39 38 37 36 38 39 40 40 39 37 36 38 39 40 43 49 51 51 51 52 52 53 53 51 50 48 46 44 44 42 39 36 36 36 36 36 36 36 36 36 36 35 35 34 34 33 33 32 32 32 31 31 30 29 28 28 27 26 26
45 45 44 45 45 45 45 45 46 45 45 44 43 42 41 40 39 38 37 38 39 40 40 40 38 37 38 39 39 41 46 50 52 53 52 51 51 53 53 52 50 47 46 45 45 43 39 37 37 37 37 36 37 37 38 37 36 36 35 34 33 33 33 33 33 33 33 32 31 30 29 29 28 28
46 46 45 45 45 45 46 46 46 46 45 45 43 43 42 41 40 39 39 39 39 39 40 40 39 38 38 39 39 40 43 47 51 54 52 49 50 53 54 54 53 51 48 46 46 44 41 38 39 39 38 38 38 38 39 38 37 36 35 34 33 33 34 34 34 34 34 34 34 33 32 31 30 29
47 46 46 46 46 46 46 46 46 46 45 45 44 43 43 42 41 40 40 40 39 39 39 40 40 39 39 39 39 39 41 44 49 52 51 49 50 51 51 53 55 54 50 46 46 45 42 41 42 42 41 40 39 39 39 39 38 38 36 35 34 33 33 33 34 34 34 35 35 34 33 32 31 31
48 48 48 47 47 47 47 47 47 46 46 45 45 44 43 42 42 42 42 41 41 40 39 39 40 40 40 40 39 40 40 41 45 49 50 49 50 49 48 51 54 54 50 48 49 47 44 44 45 44 43 41 40 40 40 40 39 39 37 35 34 34 34 34 34 34 34 34 34 34 33 33 33 33
49 49 49 49 49 48 48 48 48 47 47 46 46 45 44 44 44 44 43 43 42 41 40 40 40 41 41 40 39 39 40 40 42 45 48 50 51 50 48 48 51 52 50 50 51 51 47 46 46 45 44 43 41 40 41 40 39 39 37 36 34 34 34 34 34 34 33 33 34 34 34 33 33 33
48 48 49 49 50 50 49 49 49 49 48 47 47 46 46 46 46 46 45 45 44 43 42 42 40 41 42 42 40 39 39 40 40 42 45 49 51 50 48 48 49 49 49 51 54 53 50 47 46 45 45 44 43 42 41 40 40 39 38 36 35 35 35 34 34 33 33 33 34 34 34 33 34 34
46 46 47 48 49 50 50 50 50 50 50 49 48 48 48 48 47 47 47 46 46 45 44 43 42 41 41 42 41 40 39 41 41 41 44 48 52 52 50 48 47 47 49 52 54 54 51 47 45 44 44 44 44 43 42 40 39 39 38 38 36 35 34 34 35 34 34 34 35 35 34 34 34 34
43 44 45 46 48 49 49 49 50 50 49 49 49 49 49 48 48 47 47 47 46 46 45 44 43 42 41 42 43 41 41 41 42 42 43 47 51 52 50 48 47 47 49 50 50 51 50 47 45 45 44 44 44 43 42 41 40 40 39 38 37 35 35 35 35 35 36 36 36 36 35 35 35 35
41 41 42 44 45 46 47 48 49 49 48 48 47 47 47 47 46 46 46 46 46 45 45 44 44 42 42 42 43 42 42 41 42 41 42 46 49 50 50 49 48 48 49 49 48 48 49 49 48 48 47 45 44 44 43 41 41 41 40 39 37 36 36 36 36 36 36 37 37 36 36 36 35 34
41 40 40 41 42 44 45 46 47 47 47 46 45 45 45 45 45 44 44 44 44 44 44 44 44 43 42 43 43 43 42 42 41 41 42 45 48 50 50 51 51 50 50 49 47 47 48 49 50 50 48 45 44 44 44 42 41 41 41 40 39 37 37 37 36 35 35 36 37 36 36 37 36 34
41 40 39 39 40 42 43 44 45 45 46 45 44 43 43 43 43 42 42 42 42 42 43 43 43 43 42 42 43 43 43 41 41 41 42 43 47 50 50 51 50 50 49 48 46 45 46 47 49 49 49 47 45 45 44 43 41 41 40 40 40 39 38 37 36 35 36 36 37 37 36 37 36 34
39 38 38 38 39 40 41 42 43 44 44 44 42 41 41 41 41 41 41 41 41 41 42 42 42 42 42 42 42 42 42 41 40 41 41 42 45 48 51 51 48 47 46 45 44 43 44 45 47 48 49 48 46 45 44 43 41 40 40 40 40 39 38 37 37 36 36 36 36 37 37 36 35 35
36 36 36 36 37 38 39 39 41 42 42 41 40 39 39 39 39 40 40 40 40 40 41 41 41 42 41 41 41 41 41 40 40 41 41 42 44 47 50 50 47 44 44 44 43 43 44 45 47 48 50 50 47 45 44 43 41 40 39 39 39 38 37 38 37 36 36 36 36 36 36 35 35 34
33 33 33 33 33 34 35 36 37 38 39 38 38 38 38 38 38 38 39 38 38 39 40 40 40 41 40 39 40 40 40 40 41 40 40 42 44 46 47 47 45 43 44 43 43 43 44 46 46 48 49 50 48 47 45 43 42 41 40 38 38 38 38 38 37 35 35 36 36 36 35 35 35 34
30 30 30 30 30 30 31 32 33 34 35 35 35 35 36 36 36 37 37 37 37 37 38 38 38 39 39 38 38 40 40 40 40 40 39 40 42 44 44 44 43 43 44 43 41 41 42 44 45 47 49 49 48 48 47 45 42 42 40 39 39 39 38 36 35 35 35 36 36 35 35 35 35 35
26 27 27 27 26 26 26 27 28 30 31 32 32 33 33 33 34 34 34 35 35 35 35 35 36 37 37 37 38 39 39 38 38 38 38 40 41 42 43 44 43 42 42 41 39 38 38 41 43 45 47 48 48 48 47 45 43 42 42 41 40 39 38 37 36 36 36 36 35 35 36 37 37 36
23 24 24 24 24 23 23 23 24 26 28 29 29 29 30 30 30 31 31 32 32 32 32 34 34 34 35 36 37 38 37 37 36 35 36 38 40 41 42 43 43 42 41 39 37 36 36 38 40 42 43 46 48 48 47 45 44 43 43 42 41 41 40 39 38 37 36 36 35 36 37 36 35 37
23 22 22 22 22 22 22 22 23 24 24 25 25 25 26 26 27 28 28 28 29 29 31 32 32 33 33 35 36 36 36 35 34 33 33 35 37 39 40 41 41 41 40 38 36 35 35 35 37 39 40 43 47 48 47 46 47 46 45 43 42 41 40 38 37 37 36 37 36 37 37 36 35 39
22 21 20 19 19 19 19 20 21 21 21 21 22 23 24 24 25 25 26 26 27 28 29 30 31 31 32 34 35 35 35 34 33 32 32 33 35 36 36 37 37 38 39 38 37 36 34 33 34 38 42 45 47 48 48 49 49 48 46 43 41 40 39 38 39 38 37 36 36 38 40 40 39 41
20 19 18 17 16 16 17 17 18 19 19 20 21 22 23 23 24 24 25 25 25 26 27 28 29 30 31 33 34 34 33 32 32 32 31 31 32 32 32 33 34 36 38 39 38 36 34 33 34 37 42 46 48 49 49 50 50 48 46 43 42 42 41 40 40 39 37 35 36 38 42 44 44 44
16 15 14 14 14 14 15 16 17 18 19 20 21 21 22 23 24 24 24 24 24 25 26 26 27 29 31 33 33 32 31 30 31 32 31 30 31 30 30 32 32 33 35 37 38 38 36 35 34 35 38 43 47 48 48 48 48 48 47 44 42 41 41 41 40 39 38 38 38 40 43 45 45 44
13 13 12 12 12 13 14 15 16 17 18 19 20 21 22 23 23 24 24 24 23 23 25 26 27 28 31 32 32 30 29 29 31 31 31 32 32 31 31 30 28 26 29 32 34 35 36 35 34 34 35 37 41 45 46 46 46 47 46 44 42 41 41 42 41 39 39 39 40 42 43 43 43 47
12 12 12 11 11 12 13 13 14 15 16 17 18 19 19 20 21 21 21 21 20 20 22 24 25 27 29 29 29 28 28 30 31 32 33 34 34 31 29 28 26 26 28 29 28 30 33 34 33 33 33 34 37 40 43 44 45 44 43 43 42 41 42 42 41 40 40 40 42 43 42 41 43 51
12 11 11 11 11 11 11 11 12 12 14 15 15 15 16 16 17 18 18 18 18 18 19 21 22 24 26 26 26 27 28 30 31 31 31 31 30 28 26 26 26 26 26 26 25 27 31 33 33 33 33 33 35 38 40 43 44 43 41 40 41 41 41 40 39 39 40 41 41 41 41 41 44 50
11 10 9 9 10 10 10 10 11 11 12 13 13 13 13 14 14 15 16 16 16 17 17 18 20 22 23 24 24 26 28 28 28 28 26 26 26 26 25 25 25 25 24 23 25 27 30 32 34 35 36 36 36 37 39 40 40 39 38 39 40 40 38 37 38 38 39 39 41 43 46 47 48 50
Wind_Direction
282 275 271 267 264 261 260 258 254 248 245 244 246 246 246 246 245 245 246 247 247 248 247 246 245 245 245 243 242 242 244 246 247 247 247 247 247 247 248 249 250 251 252 254 255 255 256 256 256 254 250 246 244 245 248 250 250 251 255 260 267 273 277 280 282 283 284 285 287 290 294 299 303 305
285 280 276 270 266 263 260 259 258 255 251 249 249 249 247 246 244 243 243 244 246 248 247 246 245 245 246 245 244 243 244 244 244 244 245 246 246 245 245 247 248 250 251 252 253 253 253 253 254 255 254 251 249 249 249 250 250 251 255 261 267 272 276 278 281 282 284 286 287 290 294 297 299 300
289 285 280 275 270 266 262 260 259 258 256 252 249 249 249 248 246 244 242 242 245 248 248 247 247 245 245 245 244 244 244 244 243 244 244 245 246 245 244 244 246 249 251 252 253 252 252 252 252 254 254 253 251 250 249 249 250 252 255 260 266 271 275 277 279 281 284 286 287 289 291 293 293 296
291 289 285 279 272 268 265 262 261 259 256 253 251 249 248 249 248 247 245 241 242 247 248 247 248 247 245 245 244 244 245 245 244 244 245 245 246 245 244 243 245 247 248 249 250 251 251 251 251 252 252 252 252 251 250 250 251 254 257 262 267 272 275 276 277 279 282 285 287 289 290 290 291 295
288 289 288 284 277 271 267 265 264 262 258 255 254 254 251 249 248 247 246 242 239 245 249 248 247 248 246 245 246 245 245 245 244 243 245 246 246 245 244 243 243 245 247 247 247 248 250 251 252 252 252 252 252 252 252 253 254 257 261 264 268 272 274 275 276 278 280 282 284 287 287 288 292 296
285 286 287 286 283 277 272 268 266 265 262 257 254 255 255 253 250 247 247 243 238 241 248 249 247 247 246 245 246 247 246 246 245 244 244 245 246 246 247 245 243 242 244 247 247 248 249 250 252 253 253 253 254 254 255 256 258 261 264 267 270 272 274 274 275 275 277 279 282 284 285 287 292 296
285 283 283 284 284 283 277 272 268 267 265 261 257 254 254 254 253 250 248 246 240 239 244 249 249 248 246 244 245 247 248 248 247 245 244 244 245 247 248 248 247 244 243 245 247 248 248 249 251 253 255 257 257 258 259 260 262 265 268 270 272 273 274 275 276 277 277 278 281 283 284 287 292 296
284 283 281 279 281 283 280 275 271 269 267 265 262 258 255 253 253 253 251 250 245 241 242 247 250 250 248 245 244 246 247 248 248 246 245 245 245 246 247 248 248 247 245 245 246 247 248 249 251 253 255 257 259 260 261 263 265 267 269 271 273 274 276 277 278 279 278 279 280 281 284 286 291 294
282 281 280 278 276 278 279 276 273 271 270 268 266 264 261 257 254 253 253 252 250 246 243 244 248 250 250 248 246 245 246 247 248 247 247 247 246 246 246 246 247 247 247 247 246 247 248 249 251 252 254 255 256 258 261 263 266 268 270 272 274 275 276 277 278 278 278 278 279 280 282 285 289 291
281 279 278 277 275 274 274 274 272 271 271 271 270 268 266 263 258 254 252 251 250 249 245 243 244 248 250 250 248 246 245 245 246 247 247 248 248 247 246 245 245 245 246 247 247 248 248 250 251 252 253 254 255 257 260 263 265 268 269 271 273 274 276 277 278 278 278 279 280 281 282 285 288 290
281 279 277 275 274 272 271 271 271 270 270 271 272 271 269 267 264 258 254 251 249 248 246 244 243 244 247 249 249 248 246 245 244 245 246 246 247 247 246 245 245 245 245 246 248 249 249 250 250 251 253 254 256 258 260 262 264 266 269 270 272 273 275 277 279 279 279 280 281 283 285 287 289 290
279 279 277 274 273 272 270 269 269 269 269 268 269 271 271 270 268 265 260 254 250 247 245 244 243 243 244 246 248 248 247 245 244 244 243 243 245 246 245 245 245 246 247 247 247 247 248 249 249 250 252 254 255 257 260 262 263 265 268 270 271 273 275 277 278 278 278 279 282 284 286 287 288 288
277 276 275 274 272 271 270 269 268 268 269 268 268 268 269 271 270 269 265 260 255 250 246 244 244 244 244 244 244 246 247 246 244 244 242 241 244 246 245 245 245 246 247 247 247 247 247 247 248 249 250 252 254 256 259 260 262 263 266 268 269 271 274 276 277 277 278 279 281 283 285 287 287 286
276 274 273 271 271 270 269 269 268 268 269 269 268 267 266 267 268 268 268 265 261 256 250 245 244 245 246 244 241 241 243 245 244 244 243 241 242 245 246 245 245 245 245 245 246 247 247 247 247 248 250 252 253 254 256 257 259 261 263 265 267 269 272 274 276 277 278 280 281 282 283 285 286 286
275 274 272 270 268 267 267 267 267 267 267 268 268 268 265 264 263 264 266 266 264 260 256 250 246 245 246 247 243 238 238 242 244 244 243 242 241 243 246 246 246 245 245 244 244 246 247 248 249 250 252 253 253 253 254 255 256 258 260 262 264 267 269 272 274 276 278 279 280 280 280 282 284 284
273 272 271 270 268 267 265 265 265 266 266 267 267 268 266 264 262 261 262 263 263 261 258 254 249 246 245 246 246 241 237 238 242 244 243 242 241 242 244 246 247 247 246 244 243 245 248 251 252 254 255 255 254 254 254 255 256 258 259 261 262 265 267 269 272 274 276 277 277 277 278 280 282 283
271 270 269 269 268 267 265 264 264 264 264 265 265 266 266 265 264 261 259 259 260 260 258 255 252 250 247 244 244 244 241 239 240 242 242 242 242 242 242 243 246 247 247 246 244 243 247 251 253 254 256 256 256 256 256 257 258 260 261 261 262 264 266 268 271 273 274 275 275 276 278 280 282 282
270 269 268 267 267 266 266 264 263 262 262 262 263 263 264 264 264 263 260 258 258 258 258 255 252 251 250 245 242 242 244 243 242 241 240 241 241 242 242 242 244 246 248 248 246 243 245 248 249 250 253 255 256 257 256 257 258 259 261 262 262 264 265 267 270 272 273 274 276 277 278 279 280 281
269 268 267 267 266 265 265 264 263 262 261 261 261 261 262 263 263 263 262 259 256 256 256 255 252 250 250 248 243 240 242 244 245 242 240 239 240 241 242 243 245 246 248 250 250 247 246 247 247 248 251 253 254 255 255 256 257 258 259 260 261 262 264 265 267 269 272 274 276 277 278 278 278 279
269 268 267 266 265 265 264 263 262 262 261 260 260 260 260 261 261 262 262 260 257 255 255 255 252 249 249 249 246 242 240 241 244 244 241 239 240 242 244 245 246 247 247 249 250 249 248 248 248 249 251 252 253 254 254 255 255 256 257 258 260 262 262 263 265 267 269 272 274 276 277 277 277 278
270 269 267 266 264 263 263 262 261 261 261 260 260 259 259 260 260 260 261 261 258 256 254 253 253 250 248 248 248 245 242 240 241 243 242 241 241 243 245 246 247 247 247 247 247 247 246 247 249 251 251 251 252 253 254 254 254 255 256 258 260 262 262 263 264 266 268 270 272 274 275 276 277 278
270 269 267 266 264 263 262 261 261 260 260 260 259 259 259 259 259 259 260 260 260 258 254 252 252 251 250 248 248 247 246 242 241 242 243 242 242 243 244 244 245 247 246 245 246 246 245 245 248 250 250 250 250 252 254 254 255 255 256 258 260 261 263 264 265 266 267 269 270 272 274 275 276 277
270 268 267 265 264 262 261 260 260 259 259 259 258 258 258 258 258 258 258 258 259 259 257 254 251 250 250 249 248 247 247 245 242 241 242 242 242 243 244 243 243 245 245 246 247 246 244 243 245 247 249 249 249 251 253 254 255 255 256 258 259 261 264 265 266 266 267 269 271 273 275 275 276 276
270 268 267 265 264 262 260 260 259 258 258 257 257 257 257 257 257 257 257 258 258 258 258 256 253 250 249 249 249 247 247 247 245 242 240 240 242 242 242 241 241 242 243 245 247 246 242 242 243 246 248 249 249 250 253 254 255 255 256 257 259 261 264 265 266 267 269 271 273 274 275 276 276 277
270 268 267 265 263 262 260 259 258 258 257 256 256 257 257 257 257 257 257 257 257 257 258 257 255 251 249 248 248 248 247 248 248 244 240 238 239 241 241 240 239 239 240 242 246 246 243 242 243 244 246 248 248 249 251 253 255 256 256 257 259 261 263 265 267 269 270 272 273 274 275 276 277 277
270 268 266 265 263 261 259 258 258 257 256 256 255 256 256 257 257 257 257 257 257 256 256 255 255 253 250 248 247 247 247 247 248 245 240 237 238 239 240 240 239 237 238 239 242 244 243 242 242 243 245 247 248 248 249 252 254 256 257 256 257 259 262 265 268 270 271 273 274 275 276 277 277 278
271 269 267 265 263 261 259 258 257 256 256 256 255 255 256 256 257 257 257 256 256 255 254 254 254 252 250 248 247 246 245 245 245 244 240 236 236 237 238 240 239 238 237 238 240 243 243 242 243 243 244 246 246 247 248 250 252 255 257 257 257 259 262 264 267 270 272 273 274 275 277 277 278 278
272 270 268 266 263 262 260 258 257 256 256 255 255 255 255 255 256 256 256 256 255 254 254 253 252 251 250 248 246 245 244 243 244 244 240 236 235 236 237 239 239 239 239 239 241 243 243 242 242 242 242 244 246 247 248 249 250 253 256 259 260 261 262 264 267 270 272 273 274 275 276 277 278 280
273 271 269 267 265 263 261 258 256 256 255 255 254 254 254 254 254 254 255 255 255 254 253 252 250 250 249 248 246 245 245 244 244 245 242 237 234 233 235 237 238 238 238 238 240 242 241 240 240 241 242 245 248 248 248 249 249 251 254 258 260 261 263 265 267 268 270 272 274 275 275 275 277 280
273 272 271 269 267 265 262 259 256 254 254 254 253 253 253 253 253 253 253 253 253 253 252 251 249 249 248 247 245 244 244 245 244 244 243 239 234 231 232 235 237 237 237 237 238 240 240 239 240 242 244 246 249 249 249 249 249 250 252 255 258 260 262 263 265 267 270 272 273 273 274 275 276 276
271 272 272 271 269 266 263 259 255 253 252 252 251 251 251 252 252 252 251 252 252 252 252 251 249 247 247 246 244 243 244 245 245 245 243 239 235 232 232 234 237 239 239 239 239 240 240 239 240 242 244 245 247 248 249 249 248 248 250 253 256 258 260 262 264 266 267 269 270 272 273 274 274 273
271 271 272 271 270 267 264 259 255 252 250 250 250 250 250 250 251 251 251 251 251 251 251 250 248 247 246 245 243 243 243 244 245 246 245 239 235 233 233 233 236 240 241 240 241 243 242 241 240 240 241 242 243 246 248 248 247 246 249 252 254 256 258 261 263 264 266 268 270 271 272 272 272 273
272 271 272 271 269 266 263 259 254 251 249 248 248 248 249 249 250 250 250 250 251 251 250 249 248 246 246 245 243 241 242 243 243 245 244 240 235 234 232 232 235 239 241 240 242 243 243 242 240 239 239 240 242 244 246 246 245 247 251 253 255 255 257 259 262 264 266 267 268 270 271 273 273 274
273 271 270 269 267 264 261 257 252 249 248 248 248 248 248 249 250 250 251 250 251 250 249 248 247 246 245 244 242 240 240 241 242 243 243 240 236 234 232 231 234 238 240 241 242 244 244 243 241 240 239 239 240 242 244 244 245 249 252 254 255 255 256 259 261 264 265 266 267 268 271 273 274 276
275 272 270 268 266 263 260 255 251 248 247 247 247 248 248 249 250 251 252 251 251 250 249 248 246 245 245 243 240 239 238 239 241 241 240 236 234 232 230 230 233 237 239 240 243 245 244 243 242 241 239 237 236 238 240 242 244 247 250 252 253 254 255 258 261 263 265 266 266 269 273 275 276 276
280 276 273 271 268 264 260 255 251 248 247 247 248 249 249 250 251 251 252 252 251 250 249 248 247 246 245 242 238 237 237 238 240 240 238 233 230 227 226 228 232 236 237 239 241 243 243 243 241 239 237 235 234 236 238 240 243 246 248 250 252 254 256 257 259 261 264 266 268 272 274 275 276 278
285 280 276 273 269 264 260 255 251 249 248 248 249 250 251 251 252 251 251 252 251 249 248 247 247 246 244 242 238 236 237 239 239 238 236 233 229 227 226 228 232 235 237 239 240 241 243 244 241 237 232 230 231 234 237 239 243 246 248 249 251 253 255 257 259 262 266 268 269 271 273 276 280 282
290 285 281 276 270 264 259 255 252 250 249 249 250 250 250 250 249 249 249 250 249 248 247 246 246 244 242 240 238 236 237 239 237 234 234 234 231 229 228 229 232 235 237 239 241 242 244 244 241 235 231 229 230 232 235 238 242 246 248 250 252 254 256 259 262 263 265 267 267 268 271 274 275 274
292 290 286 282 275 266 260 255 252 250 248 247 246 246 245 245 245 246 247 248 247 247 246 246 244 242 239 238 237 236 237 237 234 230 230 230 229 229 229 230 232 235 237 239 240 241 243 243 240 235 233 231 230 231 234 238 242 246 248 250 253 255 256 257 259 261 263 264 265 268 269 270 268 266
293 291 287 283 276 266 258 253 250 248 245 243 242 241 241 241 241 241 243 243 244 244 244 243 242 238 237 236 236 235 237 236 231 227 226 226 225 226 229 231 233 236 237 239 239 239 238 239 238 236 234 232 231 232 235 239 242 246 249 250 251 253 254 254 257 260 261 261 263 266 269 270 270 268
294 289 285 279 271 262 254 249 245 242 241 240 239 238 237 236 235 235 235 235 236 236 237 238 237 235 235 235 235 236 236 233 227 224 223 222 222 224 229 231 233 236 240 242 241 238 237 236 236 236 236 235 234 233 234 237 240 244 247 249 251 253 255 256 256 258 261 262 264 266 268 269 271 273
297 289 282 276 267 258 250 245 240 237 236 235 234 233 232 231 231 232 232 230 230 232 233 233 232 232 232 234 235 236 233 227 221 220 220 220 222 226 228 227 225 229 237 241 239 237 236 234 234 235 235 235 235 233 232 234 238 241 244 248 249 250 252 255 256 259 261 262 265 267 268 271 274 270
300 293 284 276 266 255 247 242 238 235 233 232 231 231 232 234 236 238 237 233 232 234 235 234 233 232 232 234 236 234 228 221 217 217 218 222 227 229 228 225 224 226 231 235 236 234 232 231 232 234 233 231 232 233 232 233 237 240 243 246 248 248 250 253 256 260 263 265 267 268 269 270 270 261
301 296 285 274 263 254 245 239 236 233 231 231 232 233 236 240 243 244 242 237 234 235 236 236 237 237 236 235 232 227 222 218 216 216 219 226 232 234 233 232 232 233 235 239 238 234 229 227 229 233 234 232 230 231 232 234 237 241 244 247 249 249 251 254 258 262 265 266 266 266 265 264 263 258
300 294 283 269 260 252 245 239 235 233 230 228 228 228 231 236 240 240 239 237 238 239 239 238 238 237 235 230 224 219 217 215 213 215 222 229 234 237 237 237 237 239 243 247 246 239 232 228 228 232 236 236 234 233 232 234 237 241 244 247 248 250 253 256 260 263 266 266 267 267 265 260 254 250
Height
5866 5866 5866 5866 5866 5866 5866 5866 5866 5867 5869 5870 5871 5872 5874 5875 5877 5878 5879 5881 5881 5880 5881 5883 5883 5884 5885 5886 5887 5888 5889 5890 5891 5892 5892 5892 5892 5892 5893 5894 5894 5895 5895 5896 5896 5896 5897 5897 5897 5898 5898 5899 5899 5900 5900 5901 5901 5902 5902 5903 5903 5903 5903 5903 5903 5903 5903 5903 5903 5903 5902 5901 5901 5900
5863 5863 5863 5862 5862 5862 5862 5862 5862 5863 5866 5868 5869 5869 5871 5871 5873 5874 5876 5877 5878 5877 5878 5879 5880 5881 5882 5883 5885 5885 5886 5887 5888 5889 5890 5889 5890 5890 5891 5892 5892 5893 5893 5894 5894 5895 5895 5895 5896 5896 5897 5897 5898 5898 5899 5899 5900 5900 5900 5900 5901 5901 5901 5901 5902 5902 5901 5901 5901 5901 5900 5900 5899 5898
5860 5860 5859 5859 5858 5857 5857 5858 5858 5860 5862 5864 5864 5865 5866 5867 5869 5871 5872 5873 5874 5874 5875 5876 5877 5878 5879 5881 5882 5883 5883 5884 5886 5886 5887 5887 5888 5889 5889 5889 5890 5891 5891 5892 5892 5893 5893 5893 5894 5894 5895 5895 5896 5896 5897 5897 5897 5898 5898 5898 5898 5899 5899 5899 5900 5900 5900 5899 5899 5899 5898 5898 5897 5896
5856 5856 5856 5855 5855 5854 5854 5854 5854 5856 5857 5858 5858 5859 5860 5862 5865 5866 5867 5870 5870 5869 5870 5872 5873 5874 5876 5877 5879 5879 5879 5881 5882 5883 5884 5885 5885 5886 5887 5887 5888 5889 5890 5890 5890 5891 5891 5892 5892 5892 5893 5893 5894 5894 5894 5895 5895 5895 5896 5896 5896 5896 5897 5897 5898 5898 5898 5897 5896 5896 5896 5895 5894 5894
5853 5852 5852 5851 5850 5850 5850 5850 5850 5851 5853 5853 5853 5854 5855 5857 5859 5860 5862 5865 5866 5865 5865 5868 5869 5870 5872 5874 5875 5875 5876 5877 5878 5880 5881 5882 5883 5884 5884 5885 5886 5886 5887 5888 5888 5889 5889 5890 5890 5890 5891 5891 5892 5892 5892 5892 5892 5893 5893 5894 5894 5894 5894 5895 5895 5896 5895 5894 5894 5894 5893 5893 5893 5892
5851 5850 5848 5847 5846 5846 5846 5847 5846 5847 5847 5848 5849 5849 5850 5852 5854 5855 5857 5860 5862 5861 5860 5862 5865 5866 5868 5870 5871 5871 5872 5873 5875 5877 5877 5879 5880 5881 5882 5882 5883 5883 5884 5885 5885 5886 5887 5887 5887 5888 5888 5889 5889 5890 5890 5890 5890 5890 5891 5891 5891 5892 5892 5893 5893 5893 5893 5892 5892 5891 5891 5891 5891 5890
5847 5846 5845 5844 5842 5841 5842 5842 5842 5842 5842 5843 5844 5845 5845 5847 5848 5850 5851 5853 5856 5857 5856 5856 5859 5861 5863 5866 5867 5867 5868 5870 5871 5873 5874 5875 5876 5878 5878 5879 5880 5881 5881 5882 5882 5883 5884 5885 5885 5886 5886 5887 5887 5887 5888 5888 5888 5888 5888 5888 5888 5889 5889 5890 5891 5891 5890 5890 5889 5889 5888 5889 5889 5888
5842 5842 5842 5841 5839 5838 5837 5838 5838 5838 5838 5838 5839 5840 5840 5841 5842 5843 5844 5846 5849 5852 5853 5853 5853 5855 5858 5861 5862 5863 5864 5866 5867 5869 5870 5871 5873 5874 5875 5876 5877 5877 5878 5879 5879 5880 5881 5882 5883 5883 5884 5884 5885 5885 5885 5885 5885 5885 5885 5885 5885 5886 5886 5887 5888 5888 5888 5887 5887 5886 5885 5886 5887 5886
5838 5838 5837 5837 5836 5835 5834 5833 5833 5833 5834 5834 5834 5835 5835 5835 5837 5837 5838 5840 5842 5845 5848 5849 5848 5849 5852 5855 5857 5859 5860 5861 5863 5865 5867 5868 5869 5870 5871 5872 5873 5873 5874 5875 5876 5877 5878 5879 5880 5880 5881 5881 5882 5882 5882 5882 5882 5882 5882 5882 5883 5883 5883 5883 5884 5885 5885 5884 5884 5883 5883 5884 5884 5883
5833 5833 5833 5832 5831 5831 5830 5829 5829 5829 5829 5829 5830 5830 5830 5830 5831 5832 5833 5834 5836 5839 5842 5844 5844 5845 5846 5849 5852 5854 5855 5857 5859 5861 5863 5864 5865 5866 5867 5868 5869 5869 5870 5872 5873 5874 5875 5875 5876 5877 5878 5878 5878 5879 5879 5879 5879 5879 5879 5880 5880 5879 5879 5880 5881 5881 5882 5881 5881 5881 5881 5881 5882 5881
5828 5828 5828 5827 5827 5826 5826 5825 5825 5824 5824 5825 5825 5825 5825 5825 5825 5826 5828 5829 5831 5833 5836 5838 5840 5840 5841 5843 5846 5848 5850 5852 5855 5857 5858 5859 5860 5861 5862 5863 5864 5865 5867 5868 5869 5870 5871 5872 5872 5873 5874 5875 5875 5875 5876 5876 5876 5876 5877 5877 5876 5876 5876 5876 5877 5878 5878 5878 5878 5878 5878 5879 5880 5880
5823 5823 5823 5822 5822 5821 5821 5821 5820 5820 5819 5820 5820 5820 5820 5820 5820 5821 5822 5823 5825 5827 5830 5832 5834 5836 5836 5838 5840 5842 5844 5848 5851 5851 5852 5854 5855 5856 5858 5859 5860 5862 5863 5864 5865 5866 5867 5867 5868 5869 5870 5871 5871 5872 5872 5873 5873 5873 5873 5873 5873 5873 5873 5873 5873 5874 5875 5875 5875 5874 5874 5875 5877 5877
5818 5817 5817 5817 5817 5816 5816 5816 5815 5815 5814 5814 5815 5816 5815 5816 5816 5816 5817 5818 5819 5821 5823 5826 5828 5830 5831 5833 5834 5836 5839 5842 5844 5844 5845 5848 5851 5851 5852 5854 5856 5857 5859 5860 5861 5862 5862 5863 5864 5865 5866 5867 5867 5868 5868 5869 5869 5870 5870 5870 5870 5869 5869 5869 5869 5870 5871 5872 5872 5871 5870 5871 5872 5873
5812 5812 5812 5812 5812 5811 5811 5810 5810 5810 5809 5809 5809 5810 5810 5811 5811 5811 5811 5812 5813 5815 5817 5820 5822 5824 5826 5828 5828 5829 5833 5835 5836 5838 5840 5843 5845 5845 5847 5850 5852 5853 5854 5855 5856 5857 5857 5859 5860 5862 5862 5863 5863 5864 5864 5864 5865 5865 5866 5866 5866 5866 5866 5866 5865 5866 5867 5868 5869 5868 5867 5867 5868 5868
5806 5806 5806 5806 5806 5806 5805 5805 5805 5805 5804 5804 5804 5804 5805 5805 5805 5806 5806 5807 5807 5809 5810 5813 5815 5817 5820 5822 5822 5823 5826 5828 5829 5831 5834 5836 5838 5839 5842 5844 5846 5848 5848 5849 5851 5852 5853 5855 5857 5858 5859 5859 5859 5860 5860 5860 5861 5861 5861 5862 5862 5862 5862 5862 5862 5862 5863 5864 5865 5865 5864 5864 5864 5864
5800 5800 5799 5799 5799 5799 5799 5799 5799 5799 5799 5799 5798 5798 5799 5799 5800 5801 5801 5802 5802 5803 5804 5807 5809 5811 5813 5816 5817 5818 5819 5821 5822 5824 5826 5829 5832 5834 5836 5838 5841 5842 5842 5844 5847 5848 5849 5851 5853 5855 5855 5855 5855 5856 5856 5857 5857 5857 5858 5858 5858 5859 5859 5859 5858 5859 5859 5860 5861 5861 5861 5861 5861 5861
5794 5794 5793 5793 5793 5793 5793 5793 5793 5793 5793 5793 5793 5793 5793 5793 5794 5795 5796 5796 5797 5797 5798 5800 5803 5804 5806 5809 5811 5812 5813 5814 5815 5817 5820 5823 5826 5827 5830 5832 5834 5835 5837 5839 5842 5844 5845 5846 5849 5850 5850 5850 5851 5852 5852 5853 5854 5854 5854 5854 5854 5855 5855 5855 5855 5855 5856 5856 5857 5857 5857 5857 5857 5857
5788 5787 5787 5787 5786 5786 5786 5786 5786 5787 5787 5787 5787 5787 5788 5788 5788 5789 5789 5790 5791 5791 5792 5794 5797 5798 5799 5801 5804 5805 5806 5807 5809 5811 5814 5817 5818 5821 5823 5826 5828 5830 5833 5834 5837 5840 5842 5841 5843 5845 5844 5845 5847 5848 5849 5849 5850 5850 5850 5850 5850 5851 5851 5852 5852 5852 5852 5852 5853 5853 5853 5854 5854 5854
5781 5780 5780 5780 5780 5780 5779 5779 5779 5780 5780 5780 5781 5781 5782 5782 5783 5783 5783 5784 5785 5785 5786 5788 5791 5793 5793 5794 5797 5798 5799 5801 5803 5806 5808 5810 5812 5814 5817 5820 5823 5827 5829 5830 5833 5837 5838 5837 5838 5840 5839 5840 5842 5843 5844 5845 5846 5846 5846 5846 5847 5847 5848 5848 5848 5849 5849 5849 5849 5849 5849 5850 5850 5850
5773 5773 5773 5773 5773 5773 5773 5772 5772 5773 5773 5774 5775 5775 5776 5776 5777 5778 5778 5777 5778 5779 5780 5782 5785 5787 5787 5787 5790 5792 5792 5794 5797 5799 5801 5804 5807 5809 5812 5816 5819 5822 5824 5826 5828 5831 5834 5834 5834 5835 5835 5836 5838 5839 5840 5841 5842 5842 5842 5842 5843 5844 5844 5844 5845 5845 5845 5845 5845 5845 5846 5846 5846 5846
5766 5766 5765 5765 5765 5765 5765 5765 5765 5765 5766 5767 5768 5769 5769 5770 5771 5772 5772 5771 5772 5773 5774 5776 5778 5780 5781 5782 5784 5785 5786 5788 5790 5791 5794 5799 5802 5804 5806 5810 5814 5817 5818 5820 5822 5825 5828 5830 5830 5830 5831 5832 5833 5834 5835 5836 5837 5838 5838 5838 5839 5840 5840 5840 5841 5841 5841 5842 5841 5841 5842 5842 5842 5842
5758 5758 5758 5757 5758 5758 5758 5758 5758 5758 5759 5760 5761 5762 5763 5764 5765 5766 5765 5765 5766 5767 5768 5770 5772 5774 5776 5777 5778 5780 5780 5782 5783 5784 5789 5795 5797 5797 5800 5804 5808 5810 5811 5814 5816 5819 5823 5825 5825 5825 5826 5828 5829 5830 5830 5832 5833 5834 5834 5835 5835 5835 5836 5836 5837 5837 5838 5838 5838 5838 5838 5838 5838 5838
5750 5750 5749 5749 5749 5750 5750 5750 5750 5751 5752 5753 5753 5754 5755 5757 5758 5759 5758 5759 5760 5761 5762 5764 5766 5768 5770 5771 5773 5774 5774 5776 5776 5778 5784 5789 5790 5792 5796 5799 5801 5803 5806 5810 5811 5813 5817 5819 5818 5819 5821 5823 5824 5825 5826 5828 5829 5830 5830 5831 5830 5831 5831 5832 5833 5833 5834 5834 5834 5834 5834 5834 5834 5833
5742 5741 5741 5741 5741 5741 5742 5742 5743 5744 5744 5745 5746 5747 5748 5750 5751 5751 5752 5753 5754 5755 5756 5758 5760 5762 5763 5765 5767 5768 5769 5770 5771 5773 5778 5782 5783 5786 5789 5792 5794 5797 5802 5805 5803 5805 5810 5812 5812 5814 5816 5817 5820 5821 5821 5823 5824 5826 5826 5827 5826 5827 5827 5828 5828 5829 5830 5830 5830 5830 5830 5830 5829 5829
5733 5732 5732 5732 5732 5733 5733 5734 5735 5736 5736 5737 5739 5740 5741 5742 5743 5744 5745 5746 5747 5749 5750 5751 5753 5755 5757 5758 5760 5762 5763 5765 5766 5768 5772 5775 5776 5778 5782 5785 5787 5790 5796 5798 5796 5797 5802 5804 5807 5809 5810 5812 5815 5817 5817 5818 5820 5821 5822 5823 5823 5823 5823 5824 5824 5825 5825 5826 5825 5825 5825 5825 5825 5825
5724 5723 5723 5722 5722 5723 5724 5726 5726 5727 5728 5730 5731 5732 5733 5734 5736 5737 5738 5739 5740 5742 5743 5745 5746 5748 5750 5752 5754 5756 5758 5759 5760 5762 5764 5767 5769 5772 5775 5778 5780 5784 5789 5790 5788 5790 5794 5798 5801 5804 5805 5807 5810 5812 5813 5814 5815 5817 5818 5819 5819 5818 5819 5820 5820 5821 5821 5821 5821 5821 5821 5821 5821 5820
5715 5714 5713 5713 5713 5713 5715 5716 5717 5719 5720 5722 5723 5724 5725 5727 5728 5729 5731 5732 5733 5735 5736 5738 5740 5742 5743 5745 5747 5749 5751 5752 5753 5754 5757 5759 5761 5764 5768 5771 5774 5778 5781 5782 5782 5784 5789 5793 5796 5799 5801 5802 5804 5806 5809 5810 5811 5812 5813 5814 5814 5815 5815 5816 5816 5817 5817 5817 5817 5817 5817 5817 5816 5816
5706 5705 5704 5704 5704 5705 5706 5707 5708 5710 5711 5713 5715 5716 5717 5719 5720 5722 5723 5724 5726 5727 5729 5731 5733 5735 5737 5738 5740 5742 5744 5745 5746 5748 5751 5752 5754 5757 5762 5765 5768 5772 5774 5776 5778 5781 5785 5789 5791 5793 5795 5797 5799 5802 5804 5806 5808 5808 5808 5809 5810 5810 5811 5812 5812 5813 5813 5812 5812 5813 5813 5812 5812 5812
5698 5697 5697 5696 5696 5696 5697 5699 5700 5701 5703 5704 5706 5708 5710 5711 5713 5715 5716 5717 5719 5721 5722 5724 5726 5729 5730 5732 5734 5736 5737 5739 5741 5743 5745 5746 5748 5752 5756 5758 5761 5765 5768 5770 5773 5776 5779 5783 5784 5785 5788 5792 5795 5797 5800 5802 5803 5804 5804 5805 5805 5805 5806 5807 5808 5808 5808 5808 5808 5808 5808 5808 5807 5807
5690 5690 5690 5689 5689 5688 5689 5690 5691 5693 5694 5696 5698 5700 5702 5704 5705 5707 5709 5710 5712 5714 5716 5718 5720 5722 5724 5725 5727 5729 5731 5733 5735 5737 5739 5741 5743 5747 5749 5750 5752 5756 5760 5763 5766 5769 5772 5776 5778 5779 5783 5788 5791 5793 5795 5797 5799 5800 5800 5800 5801 5801 5802 5802 5803 5803 5803 5803 5803 5803 5804 5803 5803 5803
5683 5683 5682 5682 5681 5681 5681 5682 5683 5685 5686 5688 5691 5693 5695 5697 5698 5700 5702 5704 5706 5708 5709 5711 5713 5715 5717 5719 5721 5723 5725 5727 5730 5731 5733 5736 5738 5741 5743 5745 5747 5751 5754 5757 5761 5763 5766 5769 5772 5774 5778 5782 5786 5788 5789 5791 5793 5795 5795 5796 5796 5797 5797 5798 5798 5799 5798 5798 5798 5799 5799 5798 5798 5799
5675 5675 5675 5675 5674 5674 5674 5675 5676 5678 5679 5681 5684 5687 5688 5690 5692 5694 5696 5698 5700 5701 5703 5704 5707 5709 5711 5713 5715 5717 5719 5721 5724 5726 5728 5731 5733 5735 5737 5740 5743 5746 5749 5752 5755 5758 5761 5764 5766 5769 5771 5775 5779 5782 5783 5785 5787 5789 5790 5790 5791 5792 5793 5793 5794 5794 5794 5794 5794 5794 5794 5794 5794 5793
5668 5668 5668 5667 5667 5667 5667 5668 5669 5671 5673 5675 5678 5680 5682 5684 5686 5688 5690 5691 5693 5695 5696 5698 5701 5703 5705 5707 5709 5711 5713 5716 5718 5720 5722 5725 5727 5729 5731 5736 5740 5742 5744 5747 5750 5753 5755 5757 5760 5763 5765 5769 5773 5776 5777 5779 5782 5783 5784 5785 5786 5788 5789 5789 5789 5790 5790 5790 5790 5790 5789 5789 5789 5789
5662 5661 5661 5660 5660 5660 5661 5662 5663 5665 5667 5670 5672 5675 5677 5679 5680 5682 5684 5686 5687 5689 5690 5693 5695 5697 5699 5702 5704 5705 5708 5709 5711 5713 5716 5719 5721 5724 5727 5732 5736 5739 5740 5742 5745 5747 5749 5751 5754 5757 5760 5763 5767 5769 5771 5773 5776 5777 5779 5781 5782 5783 5784 5784 5785 5786 5786 5786 5786 5786 5785 5785 5784 5785
5656 5655 5654 5654 5654 5654 5655 5657 5658 5660 5662 5665 5667 5669 5671 5673 5675 5677 5678 5680 5681 5683 5685 5687 5689 5691 5694 5696 5698 5700 5702 5704 5705 5708 5710 5713 5715 5719 5723 5727 5731 5733 5735 5737 5740 5743 5744 5746 5748 5751 5753 5757 5760 5762 5764 5768 5770 5772 5774 5776 5777 5777 5778 5779 5780 5781 5780 5780 5781 5781 5781 5780 5779 5780
5651 5650 5649 5649 5650 5650 5651 5652 5654 5656 5658 5660 5662 5664 5666 5668 5670 5671 5673 5674 5676 5678 5680 5682 5684 5686 5688 5690 5692 5695 5697 5699 5701 5703 5705 5707 5710 5713 5717 5721 5725 5727 5729 5732 5736 5738 5739 5740 5742 5744 5746 5750 5753 5756 5759 5762 5765 5766 5768 5770 5771 5771 5773 5774 5775 5775 5775 5775 5776 5776 5776 5775 5774 5774
5647 5646 5645 5646 5646 5646 5647 5649 5650 5652 5654 5655 5657 5659 5661 5663 5665 5666 5668 5669 5671 5673 5675 5677 5679 5681 5683 5686 5688 5690 5692 5694 5696 5698 5701 5703 5706 5709 5712 5715 5719 5721 5724 5727 5730 5732 5734 5735 5737 5738 5740 5743 5746 5750 5754 5757 5759 5760 5761 5764 5765 5766 5768 5769 5770 5771 5771 5771 5772 5772 5770 5769 5770 5769
5643 5642 5642 5642 5643 5643 5644 5645 5647 5648 5650 5651 5653 5655 5657 5658 5660 5661 5663 5665 5667 5668 5670 5672 5674 5677 5679 5681 5684 5686 5688 5690 5692 5695 5697 5700 5702 5705 5708 5710 5713 5716 5719 5722 5725 5727 5729 5730 5731 5733 5735 5737 5741 5745 5749 5751 5751 5752 5755 5758 5760 5762 5763 5765 5765 5765 5766 5767 5767 5767 5766 5765 5766 5766
5640 5639 5639 5639 5639 5640 5641 5642 5643 5644 5646 5647 5649 5650 5652 5653 5655 5657 5658 5660 5662 5664 5666 5668 5670 5672 5674 5677 5679 5682 5684 5686 5689 5691 5694 5696 5699 5701 5704 5707 5710 5713 5715 5718 5720 5722 5724 5726 5727 5728 5731 5734 5737 5741 5743 5743 5744 5747 5751 5754 5756 5757 5759 5760 5759 5760 5761 5762 5762 5762 5761 5760 5761 5763
5636 5636 5636 5636 5636 5637 5637 5638 5639 5641 5642 5643 5644 5645 5647 5648 5650 5651 5653 5655 5657 5659 5661 5663 5665 5668 5670 5673 5675 5678 5680 5682 5685 5688 5690 5692 5695 5698 5701 5703 5706 5709 5711 5713 5715 5718 5720 5721 5722 5724 5727 5729 5733 5736 5738 5739 5741 5743 5746 5749 5751 5752 5753 5754 5755 5755 5757 5757 5758 5757 5755 5754 5755 5757
5634 5633 5633 5633 5633 5633 5634 5635 5635 5636 5637 5638 5639 5641 5642 5643 5644 5646 5647 5649 5651 5653 5656 5658 5661 5664 5666 5668 5671 5674 5676 5679 5681 5684 5686 5689 5692 5695 5697 5700 5703 5706 5708 5710 5711 5713 5715 5716 5718 5720 5722 5725 5728 5731 5733 5735 5737 5739 5741 5743 5745 5746 5747 5748 5749 5751 5751 5752 5752 5752 5750 5749 5749 5750
5632 5631 5631 5631 5631 5631 5631 5631 5632 5633 5633 5634 5636 5637 5638 5639 5640 5641 5643 5644 5646 5649 5651 5654 5656 5659 5662 5664 5667 5670 5673 5675 5677 5680 5683 5686 5688 5691 5694 5697 5700 5703 5705 5706 5707 5708 5710 5712 5714 5716 5718 5721 5723 5726 5728 5730 5732 5734 5735 5737 5739 5741 5741 5742 5744 5746 5746 5747 5747 5746 5745 5745 5745 5743
5630 5630 5629 5629 5629 5629 5629 5629 5629 5630 5631 5632 5634 5635 5637 5639 5640 5641 5642 5643 5645 5646 5648 5651 5653 5656 5659 5661 5664 5667 5669 5672 5674 5676 5679 5682 5685 5688 5691 5693 5696 5698 5700 5701 5702 5703 5705 5707 5709 5711 5713 5716 5719 5720 5723 5726 5727 5729 5731 5733 5734 5735 5736 5737 5739 5740 5741 5741 5741 5740 5739 5740 5739 5736
5629 5628 5628 5627 5627 5627 5627 5627 5628 5629 5630 5631 5633 5635 5637 5639 5640 5641 5642 5643 5643 5645 5646 5649 5651 5654 5656 5658 5661 5663 5666 5669 5671 5673 5676 5679 5682 5685 5687 5689 5691 5693 5695 5696 5697 5698 5700 5703 5705 5707 5709 5711 5713 5715 5717 5720 5722 5724 5726 5728 5729 5730 5731 5733 5734 5735 5735 5735 5735 5734 5733 5733 5732 5731
5627 5627 5626 5626 5626 5625 5626 5626 5627 5628 5629 5630 5632 5633 5635 5636 5638 5640 5641 5641 5642 5643 5645 5646 5648 5651 5653 5655 5658 5660 5663 5666 5669 5671 5674 5677 5680 5682 5684 5685 5687 5689 5691 5691 5692 5694 5695 5698 5701 5703 5704 5706 5708 5710 5713 5715 5717 5719 5722 5723 5723 5725 5727 5729 5729 5730 5730 5729 5728 5727 5726 5725 5725 5725